TimeCDT,TemperatureF,Dew PointF,Humidity,Sea Level PressureIn,VisibilityMPH,Wind Direction,Wind SpeedMPH,Gust SpeedMPH,PrecipitationIn,Events,Conditions,WindDirDegrees,DateUTC
12:13 AM,10.4,1.4,67,30.08,10.0,NW,3.5,-,N/A,,Clear,310,2013-03-13 05:13:00
12:53 AM,8.6,1.4,73,30.09,10.0,NW,3.5,-,N/A,,Clear,320,2013-03-13 05:53:00
1:12 AM,6.8,1.4,79,30.09,10.0,Calm,Calm,-,N/A,,Clear,0,2013-03-13 06:12:00
1:33 AM,6.8,1.4,79,30.09,10.0,Calm,Calm,-,N/A,,Clear,0,2013-03-13 06:33:00
1:53 AM,10.4,1.4,67,30.10,10.0,Calm,Calm,-,N/A,,Clear,0,2013-03-13 06:53:00
2:12 AM,8.6,1.4,73,30.10,10.0,Calm,Calm,-,N/A,,Clear,0,2013-03-13 07:12:00
2:33 AM,8.6,1.4,73,30.11,10.0,Calm,Calm,-,N/A,,Clear,0,2013-03-13 07:33:00
2:53 AM,8.6,1.4,73,30.11,10.0,Calm,Calm,-,N/A,,Clear,0,2013-03-13 07:53:00
3:12 AM,5.0,-0.4,78,30.12,10.0,Calm,Calm,-,N/A,,Clear,0,2013-03-13 08:12:00
3:53 AM,3.2,-0.4,85,30.13,10.0,Calm,Calm,-,N/A,,Clear,0,2013-03-13 08:53:00
4:12 AM,3.2,-0.4,85,30.14,10.0,Calm,Calm,-,N/A,,Clear,0,2013-03-13 09:12:00
4:33 AM,1.4,-2.2,85,30.14,10.0,Calm,Calm,-,N/A,,Clear,0,2013-03-13 09:33:00
4:53 AM,1.4,-2.2,85,30.15,10.0,Calm,Calm,-,N/A,,Clear,0,2013-03-13 09:53:00
5:12 AM,1.4,-2.2,85,30.16,10.0,Calm,Calm,-,N/A,,Clear,0,2013-03-13 10:12:00
5:33 AM,-0.4,-4.0,85,30.16,10.0,Calm,Calm,-,N/A,,Clear,0,2013-03-13 10:33:00
5:53 AM,-2.2,-5.8,85,30.17,10.0,Calm,Calm,-,N/A,,Clear,0,2013-03-13 10:53:00
6:12 AM,1.4,-2.2,85,30.17,10.0,Calm,Calm,-,N/A,,Clear,0,2013-03-13 11:12:00
6:33 AM,-2.2,-5.8,85,30.18,10.0,Calm,Calm,-,N/A,,Clear,0,2013-03-13 11:33:00
6:53 AM,-5.8,-7.6,92,30.18,10.0,Calm,Calm,-,N/A,,Clear,0,2013-03-13 11:53:00
7:13 AM,-5.8,-9.4,84,30.19,10.0,Calm,Calm,-,N/A,,Clear,0,2013-03-13 12:13:00
7:33 AM,-7.6,-13.0,77,30.19,10.0,Calm,Calm,-,N/A,,Clear,0,2013-03-13 12:33:00
7:52 AM,-5.8,-9.4,84,30.20,10.0,Calm,Calm,-,N/A,,Clear,0,2013-03-13 12:52:00
8:13 AM,-5.8,-7.6,92,30.21,10.0,Calm,Calm,-,N/A,,Clear,0,2013-03-13 13:13:00
8:32 AM,1.4,-2.2,85,30.21,10.0,Calm,Calm,-,N/A,,Clear,0,2013-03-13 13:32:00
8:53 AM,6.8,-0.4,72,30.22,10.0,Calm,Calm,-,N/A,,Clear,0,2013-03-13 13:53:00
9:13 AM,10.4,1.4,67,30.22,10.0,Calm,Calm,-,N/A,,Clear,0,2013-03-13 14:13:00
9:32 AM,12.2,1.4,62,30.23,10.0,NNW,6.9,-,N/A,,Clear,330,2013-03-13 14:32:00
9:53 AM,14.0,1.4,57,30.23,10.0,NNW,5.8,-,N/A,,Clear,340,2013-03-13 14:53:00
10:13 AM,15.8,1.4,53,30.23,10.0,NNW,5.8,-,N/A,,Clear,340,2013-03-13 15:13:00
10:32 AM,17.6,1.4,49,30.23,10.0,NW,8.1,-,N/A,,Clear,310,2013-03-13 15:32:00
10:53 AM,19.4,1.4,46,30.24,10.0,WNW,6.9,-,N/A,,Clear,300,2013-03-13 15:53:00
11:13 AM,21.2,1.4,42,30.24,10.0,NW,8.1,-,N/A,,Clear,310,2013-03-13 16:13:00
11:32 AM,21.2,1.4,42,30.24,10.0,NNW,8.1,-,N/A,,Clear,330,2013-03-13 16:32:00
11:53 AM,21.2,1.4,42,30.24,10.0,NW,6.9,-,N/A,,Clear,320,2013-03-13 16:53:00
12:13 PM,23.0,3.2,43,30.23,10.0,NW,9.2,-,N/A,,Clear,310,2013-03-13 17:13:00
12:32 PM,24.8,3.2,40,30.23,10.0,WNW,11.5,16.1,N/A,,Clear,290,2013-03-13 17:32:00
12:53 PM,24.8,3.2,40,30.23,10.0,NW,8.1,-,N/A,,Clear,310,2013-03-13 17:53:00
1:13 PM,26.6,3.2,37,30.23,10.0,NW,10.4,-,N/A,,Clear,310,2013-03-13 18:13:00
1:32 PM,26.6,5.0,40,30.23,10.0,WNW,3.5,-,N/A,,Clear,300,2013-03-13 18:32:00
1:53 PM,26.6,5.0,40,30.22,10.0,NW,3.5,16.1,N/A,,Clear,310,2013-03-13 18:53:00
2:13 PM,28.4,6.8,40,30.21,10.0,NW,11.5,-,N/A,,Clear,320,2013-03-13 19:13:00
2:32 PM,28.4,5.0,37,30.21,10.0,NNW,5.8,-,N/A,,Clear,330,2013-03-13 19:32:00
2:53 PM,28.4,6.8,40,30.20,10.0,NW,8.1,-,N/A,,Clear,320,2013-03-13 19:53:00
3:13 PM,28.4,6.8,40,30.20,10.0,NW,8.1,-,N/A,,Clear,310,2013-03-13 20:13:00
3:32 PM,30.2,6.8,37,30.20,10.0,NW,10.4,-,N/A,,Clear,310,2013-03-13 20:32:00
3:53 PM,28.4,6.8,40,30.20,10.0,WNW,8.1,-,N/A,,Clear,300,2013-03-13 20:53:00
4:12 PM,30.2,6.8,37,30.19,10.0,NNW,6.9,-,N/A,,Clear,340,2013-03-13 21:12:00
4:33 PM,30.2,8.6,40,30.19,10.0,NNW,9.2,-,N/A,,Clear,330,2013-03-13 21:33:00
4:53 PM,30.2,8.6,40,30.19,10.0,West,4.6,-,N/A,,Clear,260,2013-03-13 21:53:00
5:12 PM,30.2,8.6,40,30.19,10.0,NW,5.8,-,N/A,,Clear,320,2013-03-13 22:12:00
5:33 PM,30.2,8.6,40,30.18,10.0,WNW,4.6,-,N/A,,Clear,300,2013-03-13 22:33:00
5:53 PM,30.2,8.6,40,30.18,10.0,WNW,6.9,-,N/A,,Clear,290,2013-03-13 22:53:00
6:12 PM,28.4,8.6,43,30.18,10.0,West,4.6,-,N/A,,Clear,270,2013-03-13 23:12:00
6:33 PM,28.4,8.6,43,30.18,10.0,West,3.5,-,N/A,,Clear,280,2013-03-13 23:33:00
6:53 PM,26.6,8.6,47,30.19,10.0,West,3.5,-,N/A,,Clear,270,2013-03-13 23:53:00
7:12 PM,26.6,8.6,47,30.18,10.0,Calm,Calm,-,N/A,,Clear,0,2013-03-14 00:12:00
7:33 PM,24.8,8.6,50,30.18,10.0,WSW,3.5,-,N/A,,Clear,250,2013-03-14 00:33:00
7:53 PM,21.2,8.6,58,30.18,10.0,Calm,Calm,-,N/A,,Clear,0,2013-03-14 00:53:00
8:12 PM,17.6,8.6,68,30.18,10.0,Calm,Calm,-,N/A,,Clear,0,2013-03-14 01:12:00
8:33 PM,17.6,8.6,68,30.18,10.0,Calm,Calm,-,N/A,,Clear,0,2013-03-14 01:33:00
8:53 PM,15.8,8.6,73,30.18,10.0,Calm,Calm,-,N/A,,Clear,0,2013-03-14 01:53:00
9:13 PM,12.2,6.8,79,30.18,10.0,Calm,Calm,-,N/A,,Clear,0,2013-03-14 02:13:00
9:33 PM,15.8,8.6,73,30.18,10.0,Calm,Calm,-,N/A,,Clear,0,2013-03-14 02:33:00
9:53 PM,10.4,6.8,85,30.17,10.0,Calm,Calm,-,N/A,,Clear,0,2013-03-14 02:53:00
10:13 PM,10.4,6.8,85,30.17,10.0,Calm,Calm,-,N/A,,Clear,0,2013-03-14 03:13:00
10:32 PM,8.6,5.0,85,30.17,10.0,Calm,Calm,-,N/A,,Clear,0,2013-03-14 03:32:00
10:53 PM,8.6,5.0,85,30.17,10.0,Calm,Calm,-,N/A,,Clear,0,2013-03-14 03:53:00
11:13 PM,8.6,3.2,79,30.16,10.0,Calm,Calm,-,N/A,,Clear,0,2013-03-14 04:13:00
11:32 PM,6.8,3.2,85,30.16,10.0,Calm,Calm,-,N/A,,Clear,0,2013-03-14 04:32:00
11:53 PM,3.2,1.4,92,30.16,10.0,Calm,Calm,-,N/A,,Clear,0,2013-03-14 04:53:00